SCP
0 0 0 0 0 0 0 0 0 0 0 0 0 0 0 0 0 0 0 0 0 0 0 0 0 0 0 0 0 0 0 0 0 0 0 0 0 0 0 0 0 0 0
0 0 0 0 0 0 0 0 0 0 0 0 0 0 0 0 0 0 0 0 0 0 0 0 0 0 0 0 0 0 0 0 0 0 0 0 0 0 0 0 0 0 0
0 0 0 0 0 0 0 0 0 0 0 0 0 0 0 0 0 0 0 0 0 0 0 0 0 0 0 0 0 0 0 0 0 0 0 0 0 0 0 0 0 0 0
0 0 0 0 0 0 0 0 0 0 0 0 0 0 0 0 0 0 0 0 0 0 0 0 0 0 0 0 0 0 0 0 0 0 0 0 0 0 0 0 0 0 0
0 0 0 0 0 0 0 0 0 0 0 0 0 0 0 0 0 0 0 0 0 0 0 0 0 0 0 0 0 0 0 0 0 0 0 0 0 0 0 0 0 0 0
0 0 0 0 0 0 0 0 0 0 0 0 0 0 0 0 0 0 0 0 0 0 0 0 0 0 0 0 0 0 0 0 0 0 0 0 0 0 0 0 0 0 0
0 0 0 0 0 0 0 0 0 0 0 0 0 0 0 0 0 0 0 0 0 0 0 0 0 0 0 0 0 0 0 0 0 0 0 0 0 0 0 0 0 0 0
0 0 0 0 0 0 0 0 0 0 0 0 0 0 0 0 0 0 0 0 0 0 0 0 0 0 0 0 0 0 0 0 0 0 0 0 0 0 0 0 0 0 0
0 0 0 0 0 0 0 0 0 0 0 0 0 0 0 0 0 0 0 0 0 0 0 0 0 0 0 0 0 0 0 0 0 0 0 0 0 0 0 0 0 0 0
0 0 0 0 0 0 0 0 0 0 0 0 0 0 0 0 0 0 0 0 0 0 0 0 0 0 0 0 0 0 0 0 0 0 0 0 0 0 0 0 0 0 0
0 0 0 0 0 0 0 0 0 0 0 0 0 0 0 0 0 0 0 0 0 0 0 0 0 0 0 0 0 0 0 0 0 0 0 0 0 0 0 0 0 0 0
0 0 0 0 0 0 0 0 0 0 0 0 0 0 0 0 0 0 0 0 0 0 0 0 0 0 0 0 0 0 0 0 0 0 0 0 0 0 0 0 0 0 0
0 0 0 0 0 0 0 0 0 0 0 0 0 0 0 0 0 0 0 0 0 0 0 0 0 0 0 0 0 0 0 0 0 0 0 0 0 0 0 0 0 0 0
0 0 0 0 0 0 0 0 0 0 0 0 0 0 0 0 0 0 0 0 0 0 0 0 0 0 0 0 0 0 0 0 0 0 0 0 0 0 0 0 0 0 0
0 0 0 0 0 0 0 0 0 0 0 0 0 0 0 0 0 -0 0 0 0 0 0 0 0 0 0 0 0 0 0 0 0 0 0 0 0 0 0 0 0 0 0
0 0 0 0 0 0 0 0 0 0 0 0 0 0 0 0 0 0 0 0 0 0 0 0 0 0 0 0 0 0 0 0 0 0 0 0 0 0 0 0 0 0 0
0 0 0 0 0 0 0 0 0 0 0 0 0 0 0 0 0 0 0 0 0 0 0 0 0 0 0 0 0 0 0 0 0 0 0 0 0 0 0 0 0 0 0
0 0 0 0 0 0 0 0 0 0 0 0 0 0 0 0 0 0 0 0 0 0 0 0 0 0 0 0 0 0 0 0 0 0 0 0 0 0 0 0 0 0 0
0 0 0 0 0 0 0 0 0 0 0 0 0 0 0 0 0 0 0 0 0 0 0 0 0 0 0 0 0 0 0 0 0 0 0 0 0 0 0 0 0 0 0
0 0 0 0 0 0 0 0 0 0 0 0 0 0 0 0 0 0 0 0 0 0 0 0 0 0 0 0 0 0 0 0 0 0 0 0 0 0 0 0 0 0 0
0 0 0 0 0 0 0 0 0 0 0 0 0 0 0 0 0 0 0 0 0 0 0 0 0 0 0 0 0 0 0 0 0 0 0 0 0 0 0 0 0 0 0
0 0 0 0 0 0 0 0 0 0 0 0 0 0 0 0 0 0 0 0 0 0 0 0 0 0 0 0 0 0 0 0 0 0 0 0 0 0 0 0 0 0 0
0 0 0 0 0 0 0 0 0 0 0 0 0 0 0 0 0 0 0 0 0 0 0 0 0 0 0 0 0 0 0 0 0 0 0 0 0 0 0 0 0 0 0
0 0 0 0 0 0 0 0 0 0 0 0 0 0 0 0 0 0 0 0 0 0 0 0 0 0 0 0 0 0 0 0 0 0 0 0 0 0 0 0 0 0 0
0 0 0 0 0 0 0 0 0 0 0 0 0 0 0 0 0 0 0 0 0 0 0 0 0 0 0 0 0 0 0 0 0 0 0 0 0 0 0 0 0 0 0
0 0 0 0 0 0 0 0 0 0 0 0 0 0 0 0 0 0 0 0 0 0 0 0 0 0 0 0 0 0 0 0 0 0 0 0 0 0 0 0 0 0 0
Wind_Speed_500mb
13 16 20 24 26 24 20 19 18 17 16 15 14 13 11 13 16 19 21 23 25 27 31 34 36 40 43 46 48 50 53 53 72 92 81 76 75 73 70 67 68 69 73
13 15 17 20 23 22 20 19 17 15 13 10 8 7 8 10 13 15 19 22 25 28 31 35 38 42 44 47 51 53 55 56 63 87 87 84 80 78 78 75 78 75 75
22 23 25 27 26 26 24 21 18 15 11 8 5 6 7 10 13 17 21 25 30 33 36 39 43 46 48 50 52 56 58 61 65 77 96 92 92 82 87 85 86 84 88
30 29 28 28 27 25 23 20 15 12 8 6 3 4 9 14 19 24 28 32 35 38 41 44 46 50 54 57 60 62 65 69 71 77 88 95 90 87 81 83 92 87 97
33 31 30 28 25 23 20 17 13 9 4 2 7 11 17 22 27 32 36 41 45 47 49 53 55 58 61 63 67 69 69 71 73 77 84 87 88 84 73 80 82 88 97
34 33 31 27 24 20 17 13 9 4 2 7 12 19 25 31 37 42 46 49 52 55 58 58 59 60 61 62 62 63 66 68 69 68 73 73 82 78 81 78 78 85 94
36 34 30 27 23 19 14 9 4 5 10 16 22 28 33 37 40 44 47 51 55 57 60 64 65 62 61 63 64 65 66 66 65 64 71 74 76 72 73 77 77 83 92
38 34 30 24 19 12 7 6 8 13 18 24 29 33 33 38 42 46 50 55 59 61 63 63 63 62 61 62 66 68 67 65 62 59 60 67 61 64 64 70 78 83 88
36 30 25 18 12 8 8 10 14 19 24 28 31 34 36 41 45 49 54 59 60 61 62 62 60 59 60 61 64 66 68 66 60 53 50 53 57 63 63 60 60 62 76
33 26 19 11 8 8 11 16 22 26 29 32 34 40 44 45 48 50 53 57 60 61 60 60 58 59 59 55 52 59 67 66 61 60 62 63 55 51 40 38 47 58 67
27 18 13 9 10 12 18 21 26 30 34 38 41 43 44 47 48 50 52 56 58 59 61 62 60 57 53 50 49 53 54 56 60 60 58 56 50 40 43 50 49 45 55
19 15 13 11 13 18 21 23 28 32 36 39 39 39 41 43 46 49 52 55 55 57 61 60 60 58 51 48 47 46 45 49 49 50 51 50 49 53 50 45 46 41 36
19 15 12 22 25 19 20 23 27 30 32 34 36 39 39 38 39 40 44 49 52 56 57 56 59 58 51 46 48 44 43 42 42 45 47 48 50 49 47 44 37 32 30
16 26 32 22 18 19 21 22 23 26 29 33 37 41 43 42 43 47 51 54 55 57 60 62 61 54 46 43 46 42 41 37 37 39 44 47 46 45 47 43 38 30 27
37 30 23 19 18 18 20 23 23 27 30 34 38 43 47 50 50 51 50 52 53 54 56 59 59 50 45 45 42 42 42 39 37 39 42 43 44 45 43 37 33 26 25
30 25 23 21 19 22 22 22 25 26 29 34 38 44 47 49 51 51 49 47 46 48 54 54 52 46 43 44 44 47 46 41 39 38 39 40 40 41 33 29 25 24 25
31 30 27 25 24 25 25 27 26 25 30 33 36 41 46 50 49 50 49 53 51 47 48 48 49 51 51 51 53 54 51 46 41 35 34 34 32 34 29 22 20 21 21
35 32 28 28 28 29 29 31 34 39 43 41 39 45 48 49 48 50 56 55 49 42 44 47 49 50 50 49 48 48 45 42 40 35 32 32 32 32 27 22 18 18 18
37 33 31 32 32 33 34 35 38 44 48 51 51 48 46 50 47 48 50 54 57 53 49 46 48 49 48 46 43 40 39 39 38 36 33 31 29 29 27 24 20 17 16
41 39 37 37 35 34 36 39 42 46 48 52 53 54 52 55 51 47 47 48 48 47 46 46 45 45 44 43 41 39 36 35 33 31 30 29 27 25 24 23 21 19 17
47 45 42 38 35 35 37 40 43 46 49 52 51 50 49 51 51 50 49 47 48 47 45 43 42 41 39 38 38 36 35 32 30 28 27 26 25 23 22 21 20 20 18
50 46 42 38 37 39 40 42 43 46 48 49 49 46 44 45 46 45 42 41 42 43 44 42 38 37 36 35 34 34 33 33 31 29 26 24 22 22 21 21 20 20 20
49 45 41 40 42 42 41 41 43 45 47 46 45 44 41 41 41 41 41 41 40 39 39 39 39 36 35 35 35 35 34 34 33 31 29 27 26 24 24 24 25 25 25
49 46 44 45 44 43 42 42 43 44 44 43 42 41 40 40 41 41 40 40 39 39 39 39 39 39 38 37 36 36 35 34 32 30 29 29 29 28 27 27 27 26 26
50 48 47 46 43 42 42 42 41 41 40 40 39 39 39 41 42 41 41 41 40 39 36 35 35 34 33 32 31 30 30 30 31 31 32 32 31 29 28 27 26 24 23
51 49 47 45 43 43 43 41 39 39 39 38 39 40 42 42 41 40 38 37 37 36 35 34 34 36 38 39 40 40 38 37 38 39 39 37 36 34 34 33 31 30 28
Wind_Direction_500mb
172 173 175 184 186 179 185 190 197 205 213 222 222 227 243 257 267 276 283 291 296 299 300 301 303 305 307 308 305 302 297 293 290 299 299 301 300 301 302 301 298 295 293
163 159 155 158 165 167 170 170 166 169 170 183 201 232 259 277 287 297 300 300 301 304 307 311 312 310 310 309 306 305 303 301 296 300 305 304 304 305 303 302 303 303 299
162 157 153 153 155 153 153 155 159 165 167 171 200 242 274 294 301 303 308 313 314 315 315 313 311 310 309 309 309 308 306 304 302 300 303 306 307 307 309 308 307 305 305
163 159 160 158 159 156 155 155 156 160 171 183 227 298 316 318 319 317 316 314 313 313 313 313 313 313 313 313 312 311 309 307 305 303 302 304 306 308 307 308 307 308 306
168 166 167 164 163 160 157 157 158 153 147 29 344 333 325 319 316 314 313 314 314 315 316 316 316 315 314 314 313 311 309 307 306 304 302 303 304 308 308 309 306 308 305
172 172 172 169 166 163 161 158 156 163 311 329 329 323 318 315 313 311 313 314 314 314 313 312 312 311 310 308 307 306 306 307 306 304 302 300 303 304 305 307 307 310 309
180 177 176 174 172 171 173 180 215 285 307 315 317 319 317 315 314 314 314 313 313 313 312 313 312 311 311 310 309 308 308 308 307 304 303 302 303 308 310 310 308 305 301
182 180 178 176 178 183 199 248 291 309 317 318 318 316 315 314 315 315 314 312 313 314 315 316 316 317 318 316 315 314 312 311 309 309 305 306 309 311 310 303 300 298 297
183 178 177 178 188 217 265 295 305 313 316 316 315 314 316 317 318 317 315 315 316 319 320 321 321 322 320 318 314 314 314 316 318 314 313 310 306 300 299 301 305 308 304
179 175 177 200 236 271 293 311 314 312 312 314 316 316 316 317 317 316 316 318 321 322 321 320 320 319 318 321 321 319 314 317 318 317 310 311 313 317 320 309 308 307 309
180 189 196 230 267 293 294 298 305 310 312 311 312 314 318 322 324 323 322 321 321 319 318 317 319 320 322 322 317 308 312 315 312 311 314 319 327 321 316 311 312 301 296
193 208 229 255 275 281 288 298 304 307 310 315 321 327 331 334 332 327 323 319 315 313 314 315 317 321 317 318 313 315 315 312 313 316 321 326 327 321 320 317 314 311 308
208 221 241 262 259 271 288 298 306 312 317 323 328 331 333 335 331 325 320 319 320 318 316 314 313 314 319 315 316 317 318 321 320 320 322 323 323 323 326 320 318 320 325
226 241 240 245 263 280 291 303 311 315 320 323 323 323 324 327 330 331 331 330 325 321 317 313 311 314 312 309 316 315 319 323 320 318 317 318 323 327 329 324 325 327 333
225 225 235 245 257 277 294 303 311 315 318 321 321 322 327 331 333 332 327 322 319 314 310 308 312 315 315 311 310 310 317 321 323 319 318 321 324 324 329 328 331 337 338
224 230 236 244 261 279 286 296 304 309 315 316 319 322 324 324 322 319 316 313 310 310 308 311 312 311 309 305 303 305 312 316 317 319 325 325 328 331 330 334 343 349 348
233 235 238 248 268 283 288 294 297 307 315 317 317 316 314 313 315 315 312 307 313 309 308 307 303 300 296 291 293 299 303 308 311 317 317 324 328 342 339 339 354 2 358
233 238 248 261 272 279 286 297 307 311 311 312 312 310 312 313 313 309 307 310 308 302 303 306 307 306 304 301 300 298 298 298 300 305 308 312 314 320 331 337 339 347 345
240 244 256 267 274 282 291 299 305 308 309 311 313 311 314 309 313 313 310 308 308 307 306 306 306 306 306 305 305 304 301 298 298 299 300 304 310 315 316 319 324 322 320
246 250 260 268 278 289 295 300 304 307 308 310 312 314 316 312 318 316 313 310 307 307 307 306 306 306 306 307 307 307 305 302 300 298 297 299 302 306 311 314 316 314 312
247 252 261 270 280 288 294 298 301 303 306 309 311 312 312 311 316 316 315 313 310 309 309 307 307 306 306 305 305 305 305 305 305 304 304 303 304 303 304 307 308 309 308
250 255 264 274 283 288 290 292 295 300 304 306 307 309 309 309 310 310 311 309 308 308 309 309 308 307 306 305 304 303 304 302 301 301 300 300 304 308 308 308 306 302 299
252 258 266 272 276 279 283 288 294 299 301 304 305 306 308 308 307 308 308 307 306 305 304 304 305 305 304 304 304 304 304 303 303 302 303 305 306 305 304 305 307 306 303
255 259 263 267 272 278 283 287 291 294 296 299 299 302 306 305 305 305 305 304 303 302 302 301 301 301 301 301 300 299 299 300 302 307 313 318 317 313 306 299 293 288 286
255 258 261 266 270 274 279 284 287 289 291 294 295 298 301 301 301 301 301 300 299 298 299 299 300 302 304 306 307 308 311 313 314 312 309 307 305 304 304 303 301 298 294
254 256 260 263 266 271 276 279 281 284 286 288 292 295 297 299 299 300 299 297 296 295 296 297 298 300 302 303 301 299 298 297 296 296 296 295 295 295 295 296 298 297 295
Wind_Speed_850mb
13 16 20 24 26 24 20 19 18 17 16 15 14 13 11 13 16 19 21 23 25 27 31 34 36 40 43 46 48 50 53 53 72 92 81 76 75 73 70 67 68 69 73
13 15 17 20 23 22 20 19 17 15 13 10 8 7 8 10 13 15 19 22 25 28 31 35 38 42 44 47 51 53 55 56 63 87 87 84 80 78 78 75 78 75 75
22 23 25 27 26 26 24 21 18 15 11 8 5 6 7 10 13 17 21 25 30 33 36 39 43 46 48 50 52 56 58 61 65 77 96 92 92 82 87 85 86 84 88
30 29 28 28 27 25 23 20 15 12 8 6 3 4 9 14 19 24 28 32 35 38 41 44 46 50 54 57 60 62 65 69 71 77 88 95 90 87 81 83 92 87 97
33 31 30 28 25 23 20 17 13 9 4 2 7 11 17 22 27 32 36 41 45 47 49 53 55 58 61 63 67 69 69 71 73 77 84 87 88 84 73 80 82 88 97
34 33 31 27 24 20 17 13 9 4 2 7 12 19 25 31 37 42 46 49 52 55 58 58 59 60 61 62 62 63 66 68 69 68 73 73 82 78 81 78 78 85 94
36 34 30 27 23 19 14 9 4 5 10 16 22 28 33 37 40 44 47 51 55 57 60 64 65 62 61 63 64 65 66 66 65 64 71 74 76 72 73 77 77 83 92
38 34 30 24 19 12 7 6 8 13 18 24 29 33 33 38 42 46 50 55 59 61 63 63 63 62 61 62 66 68 67 65 62 59 60 67 61 64 64 70 78 83 88
36 30 25 18 12 8 8 10 14 19 24 28 31 34 36 41 45 49 54 59 60 61 62 62 60 59 60 61 64 66 68 66 60 53 50 53 57 63 63 60 60 62 76
33 26 19 11 8 8 11 16 22 26 29 32 34 40 44 45 48 50 53 57 60 61 60 60 58 59 59 55 52 59 67 66 61 60 62 63 55 51 40 38 47 58 67
27 18 13 9 10 12 18 21 26 30 34 38 41 43 44 47 48 50 52 56 58 59 61 62 60 57 53 50 49 53 54 56 60 60 58 56 50 40 43 50 49 45 55
19 15 13 11 13 18 21 23 28 32 36 39 39 39 41 43 46 49 52 55 55 57 61 60 60 58 51 48 47 46 45 49 49 50 51 50 49 53 50 45 46 41 36
19 15 12 22 25 19 20 23 27 30 32 34 36 39 39 38 39 40 44 49 52 56 57 56 59 58 51 46 48 44 43 42 42 45 47 48 50 49 47 44 37 32 30
16 26 32 22 18 19 21 22 23 26 29 33 37 41 43 42 43 47 51 54 55 57 60 62 61 54 46 43 46 42 41 37 37 39 44 47 46 45 47 43 38 30 27
37 30 23 19 18 18 20 23 23 27 30 34 38 43 47 50 50 51 50 52 53 54 56 59 59 50 45 45 42 42 42 39 37 39 42 43 44 45 43 37 33 26 25
30 25 23 21 19 22 22 22 25 26 29 34 38 44 47 49 51 51 49 47 46 48 54 54 52 46 43 44 44 47 46 41 39 38 39 40 40 41 33 29 25 24 25
31 30 27 25 24 25 25 27 26 25 30 33 36 41 46 50 49 50 49 53 51 47 48 48 49 51 51 51 53 54 51 46 41 35 34 34 32 34 29 22 20 21 21
35 32 28 28 28 29 29 31 34 39 43 41 39 45 48 49 48 50 56 55 49 42 44 47 49 50 50 49 48 48 45 42 40 35 32 32 32 32 27 22 18 18 18
37 33 31 32 32 33 34 35 38 44 48 51 51 48 46 50 47 48 50 54 57 53 49 46 48 49 48 46 43 40 39 39 38 36 33 31 29 29 27 24 20 17 16
41 39 37 37 35 34 36 39 42 46 48 52 53 54 52 55 51 47 47 48 48 47 46 46 45 45 44 43 41 39 36 35 33 31 30 29 27 25 24 23 21 19 17
47 45 42 38 35 35 37 40 43 46 49 52 51 50 49 51 51 50 49 47 48 47 45 43 42 41 39 38 38 36 35 32 30 28 27 26 25 23 22 21 20 20 18
50 46 42 38 37 39 40 42 43 46 48 49 49 46 44 45 46 45 42 41 42 43 44 42 38 37 36 35 34 34 33 33 31 29 26 24 22 22 21 21 20 20 20
49 45 41 40 42 42 41 41 43 45 47 46 45 44 41 41 41 41 41 41 40 39 39 39 39 36 35 35 35 35 34 34 33 31 29 27 26 24 24 24 25 25 25
49 46 44 45 44 43 42 42 43 44 44 43 42 41 40 40 41 41 40 40 39 39 39 39 39 39 38 37 36 36 35 34 32 30 29 29 29 28 27 27 27 26 26
50 48 47 46 43 42 42 42 41 41 40 40 39 39 39 41 42 41 41 41 40 39 36 35 35 34 33 32 31 30 30 30 31 31 32 32 31 29 28 27 26 24 23
51 49 47 45 43 43 43 41 39 39 39 38 39 40 42 42 41 40 38 37 37 36 35 34 34 36 38 39 40 40 38 37 38 39 39 37 36 34 34 33 31 30 28
Wind_Direction_850mb
172 173 175 184 186 179 185 190 197 205 213 222 222 227 243 257 267 276 283 291 296 299 300 301 303 305 307 308 305 302 297 293 290 299 299 301 300 301 302 301 298 295 293
163 159 155 158 165 167 170 170 166 169 170 183 201 232 259 277 287 297 300 300 301 304 307 311 312 310 310 309 306 305 303 301 296 300 305 304 304 305 303 302 303 303 299
162 157 153 153 155 153 153 155 159 165 167 171 200 242 274 294 301 303 308 313 314 315 315 313 311 310 309 309 309 308 306 304 302 300 303 306 307 307 309 308 307 305 305
163 159 160 158 159 156 155 155 156 160 171 183 227 298 316 318 319 317 316 314 313 313 313 313 313 313 313 313 312 311 309 307 305 303 302 304 306 308 307 308 307 308 306
168 166 167 164 163 160 157 157 158 153 147 29 344 333 325 319 316 314 313 314 314 315 316 316 316 315 314 314 313 311 309 307 306 304 302 303 304 308 308 309 306 308 305
172 172 172 169 166 163 161 158 156 163 311 329 329 323 318 315 313 311 313 314 314 314 313 312 312 311 310 308 307 306 306 307 306 304 302 300 303 304 305 307 307 310 309
180 177 176 174 172 171 173 180 215 285 307 315 317 319 317 315 314 314 314 313 313 313 312 313 312 311 311 310 309 308 308 308 307 304 303 302 303 308 310 310 308 305 301
182 180 178 176 178 183 199 248 291 309 317 318 318 316 315 314 315 315 314 312 313 314 315 316 316 317 318 316 315 314 312 311 309 309 305 306 309 311 310 303 300 298 297
183 178 177 178 188 217 265 295 305 313 316 316 315 314 316 317 318 317 315 315 316 319 320 321 321 322 320 318 314 314 314 316 318 314 313 310 306 300 299 301 305 308 304
179 175 177 200 236 271 293 311 314 312 312 314 316 316 316 317 317 316 316 318 321 322 321 320 320 319 318 321 321 319 314 317 318 317 310 311 313 317 320 309 308 307 309
180 189 196 230 267 293 294 298 305 310 312 311 312 314 318 322 324 323 322 321 321 319 318 317 319 320 322 322 317 308 312 315 312 311 314 319 327 321 316 311 312 301 296
193 208 229 255 275 281 288 298 304 307 310 315 321 327 331 334 332 327 323 319 315 313 314 315 317 321 317 318 313 315 315 312 313 316 321 326 327 321 320 317 314 311 308
208 221 241 262 259 271 288 298 306 312 317 323 328 331 333 335 331 325 320 319 320 318 316 314 313 314 319 315 316 317 318 321 320 320 322 323 323 323 326 320 318 320 325
226 241 240 245 263 280 291 303 311 315 320 323 323 323 324 327 330 331 331 330 325 321 317 313 311 314 312 309 316 315 319 323 320 318 317 318 323 327 329 324 325 327 333
225 225 235 245 257 277 294 303 311 315 318 321 321 322 327 331 333 332 327 322 319 314 310 308 312 315 315 311 310 310 317 321 323 319 318 321 324 324 329 328 331 337 338
224 230 236 244 261 279 286 296 304 309 315 316 319 322 324 324 322 319 316 313 310 310 308 311 312 311 309 305 303 305 312 316 317 319 325 325 328 331 330 334 343 349 348
233 235 238 248 268 283 288 294 297 307 315 317 317 316 314 313 315 315 312 307 313 309 308 307 303 300 296 291 293 299 303 308 311 317 317 324 328 342 339 339 354 2 358
233 238 248 261 272 279 286 297 307 311 311 312 312 310 312 313 313 309 307 310 308 302 303 306 307 306 304 301 300 298 298 298 300 305 308 312 314 320 331 337 339 347 345
240 244 256 267 274 282 291 299 305 308 309 311 313 311 314 309 313 313 310 308 308 307 306 306 306 306 306 305 305 304 301 298 298 299 300 304 310 315 316 319 324 322 320
246 250 260 268 278 289 295 300 304 307 308 310 312 314 316 312 318 316 313 310 307 307 307 306 306 306 306 307 307 307 305 302 300 298 297 299 302 306 311 314 316 314 312
247 252 261 270 280 288 294 298 301 303 306 309 311 312 312 311 316 316 315 313 310 309 309 307 307 306 306 305 305 305 305 305 305 304 304 303 304 303 304 307 308 309 308
250 255 264 274 283 288 290 292 295 300 304 306 307 309 309 309 310 310 311 309 308 308 309 309 308 307 306 305 304 303 304 302 301 301 300 300 304 308 308 308 306 302 299
252 258 266 272 276 279 283 288 294 299 301 304 305 306 308 308 307 308 308 307 306 305 304 304 305 305 304 304 304 304 304 303 303 302 303 305 306 305 304 305 307 306 303
255 259 263 267 272 278 283 287 291 294 296 299 299 302 306 305 305 305 305 304 303 302 302 301 301 301 301 301 300 299 299 300 302 307 313 318 317 313 306 299 293 288 286
255 258 261 266 270 274 279 284 287 289 291 294 295 298 301 301 301 301 301 300 299 298 299 299 300 302 304 306 307 308 311 313 314 312 309 307 305 304 304 303 301 298 294
254 256 260 263 266 271 276 279 281 284 286 288 292 295 297 299 299 300 299 297 296 295 296 297 298 300 302 303 301 299 298 297 296 296 296 295 295 295 295 296 298 297 295